{"data":{"norad_id":55171,"epoch":"2026-09-19T20:54:34.464672Z","epoch_age_seconds":76343,"freshness":"FRESH","line1":"1 55171U 23004AH  26262.87123223  .00000101  00000+0  22248-3 0  9996","line2":"2 55171  87.9170 316.6253 0001563 108.3203 251.8099 13.18685301182158","mean_motion":13.18685301,"eccentricity":0.0001563,"inclination_deg":87.917,"raan_deg":316.6253,"arg_perigee_deg":108.3203,"mean_anomaly_deg":251.8099,"bstar":0.00022248,"rev_number":18215,"period_min":109.19967022519,"perigee_km":1188.5629411395,"apogee_km":1190.9286613032,"semimajor_km":7567.8828012214,"source":"CELESTRAK","updated_at":"2026-09-20T09:00:44.756763Z"}}